Regional Weather Roundup
Issued by NWS

Home | Current Version | Previous Version | Graphics & Text | Print | Product List | Glossary On
Versions: 1 2 3 4 5 6 7 8 9 10 11 12 13 14 15 16 17 18 19 20 21 22 23 24 25 26 27 28 29 30 31 32 33 34 35 36 37 38 39 40 41 42 43 44 45 46 47 48 49 50
000
ASUS43 KIND 201909
RWRIN

WEATHER ROUNDUP FOR INDIANA
NATIONAL WEATHER SERVICE INDIANAPOLIS IN
300 PM EDT MON APR 20 2015

NOTE: "FAIR" INDICATES FEW OR NO CLOUDS BELOW 12,000 FEET WITH NO
SIGNIFICANT WEATHER AND/OR OBSTRUCTIONS TO VISIBILITY.

* - STATION DOES NOT REPORT WEATHER SUCH AS PRECIPITATION OR FOG.

+ - STATION NOT QUALITY CONTROLLED BY THE NATIONAL WEATHER SERVICE.
    USE DATA WITH CAUTION...ESPECIALLY DEWPOINT AND RELATIVE
    HUMIDITY OBSERVATIONS.

INZ001>003-010>013-019-020-202000-
NORTHWEST INDIANA

CITY           SKY/WX    TMP DP  RH WIND       PRES   REMARKS
GARY /AIRPORT/ CLOUDY    48  37  66 SW25G45   29.49R
KNOX *+        CLOUDY    46  34  61 W21G28    29.48R
LA PORTE +     CLOUDY    49  42  76 W20G26    29.47R
MICHIGAN CITY+ CLOUDY    46  36  66 W16G25    29.47R
MONTICELLO +   LGT RAIN  47  43  87 W18G31    29.54R
RENSSELAER +   CLOUDY    46  43  87 W21G29    29.54R
VALPARAISO     CLOUDY    47  39  74 W24G32    29.49R

$$

LMZ046-743>745-202000-
SOUTHERN LAKE MICHIGAN

STATION/POSITION TIME  TEMP    WIND        PRES    WAVE
                       AIR SEA DIR/SP/G            HT
                 (UTC) (F)     (DEG/KT/KT) (MB)    (FT)
BURNS HARBOR     1900   48     270/ 23/ 31  998.0R
MICHIGAN CITY    1900   46     230/ 25/ 28   N/A
5NW MICH CITY    1900   45 43  270/ 19/ 25   N/A     5

$$

INZ004-005-014>016-021>024-202000-
NORTH CENTRAL INDIANA

CITY           SKY/WX    TMP DP  RH WIND       PRES   REMARKS
ELKHART        CLOUDY    48  41  76 SW15G29   29.44R
GOSHEN         CLOUDY    49  42  77 SW26G35   29.45R
LOGANSPORT +   CLOUDY    46  43  87 W23G30    29.55R
PERU/GRISSOM   CLOUDY    47  43  85 W28G36    29.53R
ROCHESTER +    CLOUDY    50  43  76 W18G33    29.50R
SOUTH BEND     LGT RAIN  48  42  80 W18G29    29.45R
WARSAW +       CLOUDY    46  43  87 W21G35    29.47R

$$

INZ006>009-017-018-025>027-202000-
NORTHEAST INDIANA

CITY           SKY/WX    TMP DP  RH WIND       PRES   REMARKS
ANGOLA *+      CLOUDY    50  45  81 W20       29.42R
AUBURN +       CLOUDY    52  43  71 SW16G25   29.46R
FORT WAYNE     CLOUDY    51  44  77 SW29G37   29.48R
HUNTINGTON +   CLOUDY    50  41  70 W24G30    29.50R

$$

INZ028-029-035-036-043>045-051>053-202000-
WEST CENTRAL INDIANA

CITY           SKY/WX    TMP DP  RH WIND       PRES   REMARKS
CRAWFORDSVL +  CLOUDY    48  37  67 W20G26    29.59R
GREENCASTLE +  CLOUDY    52  36  54 W10G20    29.61R
LAFAYETTE      LGT RAIN  47  42  83 W17G30    29.57R
TERRE HAUTE    PTSUNNY   56  39  53 W18G30    29.63R

$$

INZ030>032-037>040-046>048-054>057-064-065-202000-
CENTRAL INDIANA

CITY           SKY/WX    TMP DP  RH WIND       PRES   REMARKS
ANDERSON       CLOUDY    54  39  58 SW17G35   29.57R
CP ATTERBURY + CLOUDY    55  43  62 W16G24    29.61R
FISHERS *+     CLOUDY    52  43  71 W21G31    29.58
FRANKFORT +    PTSUNNY   47  47 100 SW23G36   29.58R FOG
GREENWOOD *+   CLOUDY    52  41  66 W14G26    29.60R
INDIANAPOLIS   CLOUDY    53  41  63 W23G31    29.58R
-EAGLE CREEK   CLOUDY    51  40  65 W16G26    29.59R
KOKOMO *+      PTSUNNY   48  43  81 W23G36    29.55R
MARION +       CLOUDY   N/A N/A N/A W24       29.54R
MT COMFORT *+  MOSUNNY   52  37  58 SW21G31   29.58R
SHELBYVILLE    CLOUDY    55  44  66 SW17G25   29.58S
ZIONSVILLE +   LGT RAIN  49  40  69 W25G32    29.59R

$$

INZ033-034-041-042-049-050-058-059-202000-
EAST CENTRAL INDIANA

CITY           SKY/WX    TMP DP  RH WIND       PRES   REMARKS
MUNCIE         CLOUDY    52  42  69 W23G32    29.54R

$$

INZ060-061-067>069-081>083-085>088-202000-
SOUTHWEST INDIANA

CITY           SKY/WX    TMP DP  RH WIND       PRES   REMARKS
EVANSVILLE     MOSUNNY   60  41  49 W17G28    29.70R
HUNTINGBURG *+ PTSUNNY   59  43  55 W20G26    29.68R
WASHINGTON +   PTSUNNY   56  38  49 W18G28    29.66R

$$

INZ062-063-066-070>080-084-089>092-202000-
SOUTH CENTRAL AND SOUTHEAST INDIANA

CITY           SKY/WX    TMP DP  RH WIND       PRES   REMARKS
BEDFORD +      CLOUDY    55  41  58 W13G21    29.63S
BLOOMINGTON    CLOUDY    55  43  63 W16G29    29.62R
MADISON *+     CLOUDY    54  43  66 SW15G21   29.65R
NORTH VERNON + PTSUNNY   57  45  62 W22G30    29.62R

$$




USA.gov is the U.S. government's official web portal to all federal, state and local government web resources and services.